Flag for Norway Weather past 2 weeks in Harstad, Norway

Now
66 °F

Partly sunny.


Feels Like: 66 °F
Forecast: 54 / 62 °F
Wind: 12 mph from West

Location: Evenes

Current Time: Jul 24, 2014 at 7:02:07 PM

Latest Report: Jul 24, 2014 at 5:50 PM


Visibility: N/A

Pressure: 30.27 "Hg

Humidity: 68%

Dew point: 55 °F

Location of HarstadLocation

Historic Weather in Harstad — Graph

°F

Harstad temperature yesterday

Maximum temperature yesterday: 73 °F (at 5:50 PM)
Minimum temperature yesterday: 55 °F (at 2:20 AM)
Average temperature yesterday: 63 °F

Past Weeks' High & Low Weather Summary

 TemperatureHumidityPressure
High88 °F (Jul 10, 1:50 PM)100% (Jul 12, 3:20 AM)30.33 "Hg (Jul 12, 3:20 AM)
Low54 °F (Jul 11, 11:50 PM)34% (Jul 22, 2:50 PM)29.71 "Hg (Jul 15, 5:50 PM)
Average65 °F77%30.08 "Hg
* Reported Jul 9 5:50 PM — Jul 24 5:50 PM, Harstad, Weather by CustomWeather, © 2014

Note: Actual official high and low records may vary slightly from our data, if they occured in-between our weather recording intervals... More about our weather records

Advertising

Harstad weather history for previous 24 hours

 ConditionsComfort  
Time TempWeatherWind HumidityBarometerVisibility
5:50 PM
Jul 24
66 °FPartly sunny.12 mph68%30.27 "HgN/A
4:50 PM68 °FScattered clouds.10 mph69%30.27 "HgN/A
3:50 PM70 °FPassing clouds.14 mph60%30.30 "HgN/A
3:20 PM68 °FScattered clouds.13 mph64%30.27 "HgN/A
2:50 PM70 °FPassing clouds.13 mph64%30.30 "HgN/A
1:50 PM68 °FPassing clouds.13 mph69%30.30 "HgN/A
12:50 PM68 °FScattered clouds.10 mph69%30.30 "HgN/A
11:50 AM64 °FPartly sunny.13 mph78%30.30 "HgN/A
10:50 AM66 °FPartly sunny.14 mph73%30.30 "HgN/A
9:50 AM66 °FScattered clouds.12 mph73%30.30 "HgN/A
8:50 AM63 °FScattered clouds.9 mph83%30.30 "HgN/A
7:50 AM63 °FPartly sunny.7 mph83%30.30 "HgN/A
7:20 AM63 °FPartly sunny.7 mph83%30.30 "HgN/A
6:50 AM61 °FPartly sunny.3 mph88%30.30 "HgN/A
6:20 AM63 °FScattered clouds.8 mph83%30.30 "HgN/A
5:50 AM63 °FScattered clouds.10 mph83%30.30 "HgN/A
5:20 AM63 °FOvercast.14 mph83%30.30 "HgN/A
4:50 AM63 °FOvercast.10 mph83%30.30 "HgN/A
4:20 AM63 °FOvercast.2 mph77%30.30 "HgN/A
3:50 AM61 °FPassing clouds.6 mph88%30.30 "HgN/A
3:20 AM61 °FPassing clouds.7 mph83%30.27 "HgN/A
2:50 AM63 °FPassing clouds.2 mph77%30.27 "HgN/A
2:20 AM61 °FPassing clouds.3 mph88%30.27 "HgN/A
1:50 AM57 °FPassing clouds.1 mph88%30.27 "HgN/A
1:20 AM57 °FPassing clouds.2 mph94%30.27 "HgN/A
12:50 AM57 °FCool.1 mph94%30.27 "HgN/A
12:20 AM57 °FCool.1 mph94%30.27 "HgN/A
11:50 PM
Jul 23
59 °FPassing clouds.2 mph88%30.27 "HgN/A
11:20 PM61 °FPassing clouds.1 mph83%30.27 "HgN/A
10:50 PM63 °FPassing clouds.1 mph73%30.27 "HgN/A
10:20 PM63 °FSunny.3 mph73%30.27 "Hg10 mi
9:50 PM64 °FSunny.6 mph68%30.27 "Hg10 mi
8:50 PM68 °FSunny.6 mph60%30.27 "Hg10 mi
7:50 PM70 °FSunny.7 mph53%30.27 "Hg10 mi
Weather by CustomWeather, © 2014

See weather overviewHow to use our weather pages